Find Starlink 1555

NORAD ID: 46032 Int'l Des: 2020-055 Owner: SPXS Country: US Constellation: starlink operational
LEOCIRCULARSTARLINK_TYPE

实时位置

正在加载3D地球...

关于 Starlink 1555

正在加载描述...

即将过境

Passes for default location (London). Set your location on the main map for personalized predictions.

高度历史

Loading altitude history...

两行轨道根数

1 46032U 20055F 26126.95685315 .00000306 00000-0 22484-4 0 9999
2 46032 53.1590 216.0495 0001612 82.1757 277.9427 15.30196887317813
Epoch: May 6, 2026 • Age: 8 hours

当前状态

高度 478.0 km
速度 7.63 km/s
星下点 40.07°N, 20.17°E
发射日期 Aug 7, 2020
运行时间 5.7 years
类型 internet

技术详情

分类 Payload
质量 260.00 kg
干质量 248.00 kg
总质量 260.00 kg
长度 0.20 m
直径 2.80 m
跨度 9.00 m
形状 Box + pan
制造商 SPXS
平台类型 Starlink
阶段状态 In Orbit
所有者/国家 SPXS/US

Most Searched